This is the latest recevied weather packets stored in our database for station/object NE8U. If no packets are shown the sender has not sent any weather packets the latest 1 day(s).
| Time | Temp. | Humidity | Pressure | Rain* | Wind** | Luminosity | Snow |
|---|---|---|---|---|---|---|---|
| 1778007203 | 20.56° C | 54% | 1013.4 hPa | 0 mm | 0 m/s | 181 W/m² | - |
| 1778006899 | 21.11° C | 53% | 1013.7 hPa | 0 mm | 0.89 m/s, 177° | 215 W/m² | - |
| 1778006596 | 21.67° C | 50% | 1013.4 hPa | 0 mm | 0.45 m/s, 37° | 961 W/m² | - |
| 1778006293 | 22.22° C | 50% | 1013.8 hPa | 0 mm | 0.45 m/s, 68° | 266 W/m² | - |
| 1778005990 | 22.22° C | 51% | 1013.7 hPa | 0 mm | 0.45 m/s, 289° | 238 W/m² | - |
| 1778005687 | 21.11° C | 52% | 1013.9 hPa | 0 mm | 1.34 m/s, 167° | 320 W/m² | - |
| 1778005383 | 22.22° C | 50% | 1013.8 hPa | 0 mm | 0.45 m/s, 203° | 235 W/m² | - |
| 1778005080 | 22.22° C | 51% | 1013.9 hPa | 0 mm | 0.89 m/s, 121° | 281 W/m² | - |
| 1778004777 | 22.22° C | 49% | 1013.9 hPa | 0 mm | 1.79 m/s, 167° | 892 W/m² | - |
| 1778004473 | 21.67° C | 52% | 1013.9 hPa | 0 mm | 1.79 m/s, 224° | 327 W/m² | - |
| 1778004170 | 22.22° C | 53% | 1014 hPa | 0 mm | 0.89 m/s, 276° | 475 W/m² | - |
| 1778003867 | 20° C | 58% | 1014.1 hPa | 0 mm | 0.89 m/s, 289° | 968 W/m² | - |
| 1778003563 | 19.44° C | 60% | 1014.1 hPa | 0 mm | 1.34 m/s, 30° | 285 W/m² | - |
| 1778003260 | 19.44° C | 60% | 1014.2 hPa | 0 mm | 1.34 m/s, 56° | 255 W/m² | - |
| 1778002957 | 20° C | 60% | 1014.3 hPa | 0 mm | 0.89 m/s, 55° | 317 W/m² | - |
| 1778002653 | 20° C | 60% | 1014.3 hPa | 0 mm | 0.45 m/s, 4° | 329 W/m² | - |
| 1778002350 | 19.44° C | 61% | 1014.6 hPa | 0 mm | 0 m/s | 281 W/m² | - |
| 1778002047 | 19.44° C | 62% | 1014.4 hPa | 0 mm | 0 m/s | 245 W/m² | - |
| 1778001744 | 19.44° C | 62% | 1014.4 hPa | 0 mm | 0 m/s | 254 W/m² | - |
| 1778001443 | 19.44° C | 61% | 1014.2 hPa | 0 mm | 0.45 m/s, 81° | 250 W/m² | - |
| 1778001141 | 18.89° C | 63% | 1014.2 hPa | 0 mm | 0.45 m/s, 218° | 264 W/m² | - |
| 1778000837 | 18.89° C | 64% | 1014.4 hPa | 0 mm | 0 m/s | 212 W/m² | - |
| 1778000534 | 19.44° C | 65% | 1014.3 hPa | 0 mm | 0.45 m/s, 263° | 232 W/m² | - |
| 1778000230 | 18.89° C | 62% | 1014.3 hPa | 0 mm | 0 m/s | 270 W/m² | - |
| 1777999926 | 18.89° C | 65% | 1014.3 hPa | 0 mm | 0 m/s | 255 W/m² | - |
* Rain latest hour (hover to see other rain measurements)
** Current wind speed in m/s (hover to see current wind gust speed)